Regional Weather Roundup
Issued by NWS Kansas City/Pleasant Hill, MO

Home | Current Version | Previous Version | Graphics & Text | Print | Product List | Glossary Off
Versions: 1 2 3 4 5 6 7 8 9 10 11 12 13 14 15 16 17 18 19 20 21 22 23 24 25 26 27 28 29 30 31 32 33 34 35 36 37 38 39 40 41 42 43 44 45 46 47 48 49 50

000
ASUS43 KEAX 050810
RWREAX

WEATHER ROUNDUP FOR EASTERN KANSAS AND NORTHWEST MISSOURI
NATIONAL WEATHER SERVICE KANSAS CITY/PLEASANT HILL MO
300 AM CDT WED AUG 05 2015

KSZ040-057-103>105-MOZ028-029-037-043-050900-
...KANSAS CITY METROPOLITAN AREA...

CITY           SKY/WX    TMP DP  RH WIND       PRES   REMARKS
K.C. INTL      MOCLDY    70  68  93 SE5       29.99S
K.C. DOWNTOWN  CLOUDY    73  70  90 NE3       29.98S
LEES SUMMIT    CLOUDY    71  68  90 SE8       29.99F
OLATHE - IXD   CLOUDY    71  70  96 SE6       29.99S FOG
OLATHE - OJC   CLOUDY    70  69  97 SE6       29.98S
LAWRENCE       PTCLDY    71  69  93 E3        29.98R FOG

$$

MOZ001>008-011>017-020>025-030>033-038>040-044>046-053-054-050900-
...NORTHERN AND CENTRAL MISSOURI...

CITY           SKY/WX    TMP DP  RH WIND       PRES   REMARKS
ST. JOSEPH     CLOUDY    70  68  93 SE5       29.99R
MOSBY          PTSUNNY   68  68 100 CALM      29.99S FOG
WHITEMAN AFB   LGT RAIN  70  66  88 S8        29.98F
CLINTON        MOCLDY    72  70  94 SE7       29.99S
SEDALIA        CLOUDY    71  68  90 CALM      30.01R
WARSAW         NOT AVBL
CHILLICOTHE      N/A     71  69  93 CALM      30.00R
KIRKSVILLE     CLEAR     67  63  87 NE6       30.00S

$$

MOZ041-047>049-056>058-063>065-088>090-097-050900-
...EASTERN AND SOUTHERN MISSOURI...

CITY           SKY/WX    TMP DP  RH WIND       PRES   REMARKS
ST. LOUIS INTL MOCLDY    75  68  78 E9        30.00S
SPIRIT OF STL  MOCLDY    75  71  87 NE8       29.98S
COLUMBIA       MOCLDY    69  66  90 SW5       30.02S
JEFFERSON CITY LGT RAIN  71  67  87 CALM      30.00R
ROLLA          LGT RAIN  69  64  84 S8        30.00F
OSAGE BEACH    CLOUDY    70  66  88 S7        29.99F
SPRINGFIELD    CLOUDY    71  69  93 SE9       29.99R
BRANSON        CLOUDY    68  68 100 SE8       30.00F
JOPLIN         LGT RAIN  73  70  90 SE5       29.96F
WEST PLAINS    CLOUDY    69  65  86 NW5       30.03S

$$

IAZ060-094-KSZ022-034>040-054-083-096-NEZ052-066-093-050900-
...KANSAS...SOUTHEAST NEBRASKA AND IOWA...

CITY           SKY/WX    TMP DP  RH WIND       PRES   REMARKS
TOPEKA         MOCLDY    70  68  93 E3        29.98R
MANHATTAN      CLOUDY    71  68  90 E8        29.95F
EMPORIA        CLOUDY    70  67  90 E7        29.96S
CHANUTE        CLOUDY    72  70  93 E6        29.95F FOG
WICHITA        MOCLDY    73  69  87 SE8       29.92F
OMAHA          MOCLDY    68  65  90 SE6       29.99R
LINCOLN        CLOUDY    73  70  90 SE8       29.97F
FALLS CITY     CLOUDY    69  68  96 E6        29.98S FOG
LAMONI         PTCLDY    69  66  90 CALM      30.01R
DES MOINES     MOCLDY    70  62  76 SE7       30.00S

$$




USA.gov is the U.S. government's official web portal to all federal, state and local government web resources and services.